SCP
3 5 7 6 5 3 3 2 2 2 3 3 4 4 3 2 2 1 2 2 2 1 1 1 1 1 1 1 1 1 1 1 1 1 1 1 1 1 1 1 1 1 1
3 5 6 6 4 3 2 2 2 2 3 3 3 3 3 3 2 2 2 2 1 1 1 1 1 1 1 1 1 1 1 1 1 1 1 2 1 1 1 1 1 1 1
3 4 5 5 3 3 2 2 2 2 2 2 3 3 3 3 2 2 2 1 1 1 1 1 1 1 1 2 2 2 2 2 1 1 2 2 2 2 2 1 1 1 1
3 3 4 4 3 2 2 2 2 2 2 2 3 3 3 3 2 2 2 1 1 1 1 1 1 1 2 2 3 3 2 2 2 2 2 2 2 2 2 2 1 1 1
2 2 3 3 3 3 3 2 2 3 3 3 3 3 3 3 2 2 2 2 1 1 1 1 1 2 2 3 4 4 3 3 2 2 2 2 2 1 2 2 1 1 1
2 2 3 3 4 4 3 3 2 3 3 3 3 3 3 2 2 2 2 1 1 1 1 1 1 2 2 3 4 4 4 4 3 2 2 1 1 1 1 1 1 1 1
2 2 3 4 4 4 4 3 3 3 3 3 3 3 3 2 3 3 2 2 1 1 1 1 1 1 2 2 3 3 4 4 3 2 2 1 1 1 1 1 1 2 2
2 2 3 3 4 5 5 4 3 3 3 3 3 3 3 2 2 2 2 2 1 1 1 1 1 1 1 2 2 3 4 4 3 2 1 1 2 2 2 2 2 2 2
3 3 3 3 4 4 5 4 3 3 3 3 3 3 3 2 2 2 2 2 2 1 2 2 1 1 1 2 3 3 4 3 2 1 1 1 2 2 2 2 2 2 2
3 3 3 3 3 4 5 4 4 3 3 3 3 3 2 2 1 1 1 2 2 1 2 2 1 1 1 2 2 3 3 3 2 1 1 1 1 2 2 2 2 2 2
3 3 3 3 3 3 4 4 4 3 3 3 3 2 2 1 1 1 1 1 1 1 2 2 2 1 1 2 2 2 2 2 2 1 1 2 2 2 1 1 2 2 2
3 4 4 3 3 3 3 3 3 3 2 2 2 1 1 1 1 1 1 1 1 1 1 1 1 1 1 2 2 2 2 2 2 2 2 2 2 2 2 2 2 2 2
3 4 4 3 3 3 3 3 3 2 2 1 1 1 1 1 1 1 1 1 1 1 1 1 1 1 1 1 1 2 2 2 2 2 2 2 2 2 2 2 1 1 1
3 3 3 3 3 3 2 2 2 2 2 1 1 1 1 1 0 0 0 0 1 1 1 1 1 1 1 1 1 1 1 2 2 2 2 2 2 2 2 2 1 1 1
3 3 3 3 3 2 2 2 2 2 1 1 1 1 1 1 1 1 0 0 0 1 1 1 1 1 1 1 1 1 1 1 1 1 1 1 1 1 2 2 2 1 1
3 3 3 3 3 2 2 1 1 1 1 1 1 1 1 1 1 1 1 0 0 1 1 1 1 1 1 1 1 1 1 1 1 1 1 1 1 1 2 2 2 1 1
2 2 2 2 2 2 1 1 1 1 1 1 1 1 1 1 1 1 1 1 1 1 1 1 1 2 2 2 2 1 1 1 1 1 1 1 1 1 2 2 2 2 2
2 2 2 2 2 2 1 1 1 1 1 1 1 1 1 1 1 1 1 1 1 1 1 1 1 2 2 2 2 1 1 1 1 1 1 1 1 1 1 1 2 2 2
2 2 2 3 2 2 1 1 1 1 1 1 1 1 1 1 1 1 1 1 1 1 1 1 1 2 2 2 1 1 1 1 1 1 1 1 1 1 1 1 2 2 2
3 3 2 2 2 2 1 1 1 1 1 1 1 1 1 1 1 1 1 1 1 1 1 1 1 1 1 1 1 1 1 1 1 0 0 1 0 0 1 1 1 1 2
3 3 2 2 2 1 1 1 1 1 1 1 1 1 1 1 1 1 1 1 1 1 1 1 1 1 1 1 1 1 1 1 1 0 0 1 0 0 0 1 1 1 1
3 3 2 2 1 1 2 2 2 2 2 2 2 2 2 2 2 2 1 1 1 1 1 1 1 1 1 1 1 1 1 1 1 0 0 1 1 1 1 1 1 1 1
3 3 2 2 2 2 2 2 2 2 2 2 2 2 2 2 3 2 2 2 1 1 1 1 1 1 1 1 1 1 1 1 0 0 0 0 1 1 1 1 1 1 1
3 3 3 2 2 2 2 2 2 2 2 2 2 1 2 2 3 3 3 2 1 1 1 1 1 1 1 1 1 0 0 0 0 0 0 0 0 1 1 1 0 0 0
3 3 3 3 3 2 2 1 1 1 1 1 1 1 1 1 2 2 2 2 1 1 1 1 1 1 1 1 1 0 0 0 0 0 0 0 0 0 0 0 0 0 0
3 3 3 3 3 2 2 1 1 1 1 1 1 1 1 1 1 1 2 2 1 1 1 1 1 1 1 1 0 0 0 0 0 0 0 0 0 0 0 0 0 0 0
Wind_Speed
4 5 10 10 9 10 11 11 11 12 12 13 13 13 13 13 12 12 12 12 11 11 11 10 10 10 10 10 10 10 10 10 10 10 10 11 11 11 12 12 12 9 13
7 7 11 10 10 10 11 11 11 11 11 11 12 12 13 12 12 11 11 11 11 11 10 10 10 9 9 9 9 9 10 9 9 10 10 10 11 12 12 12 12 8 13
8 7 9 11 11 11 11 11 10 11 11 11 11 11 12 12 11 11 10 10 10 10 10 10 9 9 8 8 8 8 9 8 8 9 9 5 7 11 12 12 12 12 12
8 6 7 11 10 10 10 11 10 10 10 10 10 11 11 11 11 11 10 10 10 9 9 9 9 8 8 8 8 8 8 8 8 7 4 4 5 10 11 12 12 12 12
7 5 7 11 10 10 10 10 10 10 10 10 10 10 10 10 10 10 10 10 9 9 8 9 8 8 7 7 7 6 7 7 8 6 4 3 3 8 10 11 12 12 12
6 5 7 11 10 9 9 9 9 9 10 10 9 9 9 9 9 9 9 9 8 8 8 8 7 7 7 6 6 6 6 8 7 4 4 3 3 7 10 11 12 11 11
6 4 5 10 9 9 9 8 8 9 9 9 9 9 8 7 7 8 8 8 7 7 7 7 7 6 6 6 6 6 6 7 5 4 4 3 4 7 9 10 10 11 11
7 5 4 8 9 8 8 8 8 7 8 8 8 7 7 7 6 7 7 7 6 6 6 6 6 6 5 5 5 5 6 5 5 4 4 4 6 8 9 9 10 10 10
6 5 3 4 5 7 7 7 7 7 7 8 7 7 6 6 6 7 6 6 6 6 5 5 5 4 4 4 4 4 5 5 4 3 4 4 7 9 9 9 10 10 10
4 3 3 3 3 3 3 6 6 7 7 7 7 7 6 6 5 5 5 4 5 5 5 4 4 4 3 3 3 4 5 4 3 3 2 4 8 9 9 9 9 9 9
4 2 3 3 2 2 2 4 5 6 6 6 5 6 5 2 2 1 3 3 4 4 4 3 3 3 3 2 3 4 3 2 2 2 2 5 8 9 9 9 9 9 9
5 3 2 3 2 2 2 2 2 2 2 2 2 3 3 2 1 2 2 2 3 2 2 2 1 1 1 0 1 2 1 2 2 2 2 6 8 9 9 9 9 9 9
6 5 3 3 2 2 2 2 1 1 2 2 2 2 2 2 1 1 1 1 1 1 1 2 2 1 1 1 0 1 1 1 1 2 3 6 7 8 9 9 9 9 9
6 5 4 3 3 2 2 2 2 1 2 2 2 2 2 2 1 1 1 1 1 1 1 1 1 1 1 1 1 1 1 1 1 1 2 6 7 8 8 8 9 9 8
6 5 4 4 3 3 2 2 2 2 2 2 2 2 3 2 2 1 1 1 1 1 1 1 1 1 1 1 1 1 1 2 2 2 2 5 6 7 8 9 9 9 8
5 5 4 5 4 3 3 2 2 1 2 2 2 2 3 2 2 2 1 1 1 1 1 1 1 1 1 1 1 1 1 1 2 2 2 3 5 7 8 9 9 9 9
6 5 5 5 5 4 3 3 2 2 2 2 2 2 3 2 2 2 2 1 1 1 1 1 1 1 1 1 1 1 1 1 2 2 2 2 3 6 7 7 8 9 9
6 5 5 5 5 4 3 3 2 2 2 1 1 1 2 3 3 2 2 1 1 1 1 1 1 1 1 1 1 0 0 1 1 2 2 2 2 2 5 7 7 8 9
6 6 5 4 4 4 3 2 2 2 1 1 1 1 2 2 3 2 2 1 2 1 1 1 1 1 1 1 1 0 0 0 1 1 2 2 2 1 1 3 6 7 8
4 5 4 4 3 3 2 2 2 2 1 1 1 1 2 2 2 3 2 2 2 2 1 1 1 1 1 1 1 1 0 1 0 0 1 1 1 1 1 2 2 4 7
4 4 4 4 4 4 2 2 2 1 0 0 1 1 1 2 2 2 2 2 2 2 1 2 1 1 1 1 1 1 1 1 1 0 0 0 1 1 1 2 1 2 3
4 4 4 4 4 4 3 2 2 2 1 1 1 1 1 2 2 2 2 2 2 2 1 1 2 1 1 1 2 1 1 2 2 1 0 1 1 1 1 2 2 3 3
4 4 4 3 3 3 3 3 3 2 2 1 1 1 1 1 1 1 2 2 2 2 2 2 2 3 2 0 1 2 2 1 1 1 1 1 1 1 2 2 2 3 3
4 4 3 3 3 3 4 4 4 3 2 1 1 1 1 1 1 1 2 2 2 2 2 1 1 2 2 1 1 1 1 2 2 1 1 1 1 1 2 2 2 3 3
3 4 3 3 3 3 3 4 4 3 2 1 2 2 1 1 1 2 2 2 2 1 1 1 1 2 2 2 1 1 1 1 1 2 2 2 1 2 2 2 2 2 3
3 3 3 3 3 3 3 3 4 4 3 3 3 2 1 1 1 1 2 2 2 1 1 1 1 2 1 2 1 2 2 2 2 2 2 2 2 2 2 2 2 2 3
Wind_Direction
164 163 161 152 142 134 128 123 120 121 122 125 126 129 133 135 135 134 133 131 130 128 126 123 121 121 121 124 126 126 125 125 131 133 134 137 140 138 136 133 129 129 130
152 159 159 153 146 139 132 127 123 124 124 127 129 132 134 137 137 136 135 133 131 130 128 127 126 124 123 125 128 126 126 127 132 136 136 139 143 142 140 138 136 138 138
139 151 155 154 149 143 136 131 128 126 129 130 133 135 137 140 139 138 137 135 135 133 132 132 131 129 126 126 126 126 131 133 134 136 134 132 143 146 146 145 143 143 143
139 144 155 154 150 145 141 137 135 133 135 136 138 138 139 141 143 144 144 142 139 137 135 135 135 132 130 132 129 130 135 136 136 134 122 132 147 152 152 151 147 146 147
137 142 160 153 151 148 144 143 142 141 142 142 142 142 141 143 145 148 149 149 147 143 139 138 136 134 130 130 131 134 140 141 136 122 110 118 130 155 154 153 152 150 151
136 142 160 152 153 151 149 148 148 147 146 146 145 146 146 148 149 153 156 157 155 152 148 146 142 140 137 133 133 138 143 144 134 123 121 128 139 161 157 158 157 154 155
136 138 155 153 154 155 154 151 151 152 153 150 148 149 150 154 154 157 164 164 161 157 154 153 150 146 143 142 141 141 140 147 137 139 140 147 154 161 157 160 159 157 157
141 138 148 155 154 155 158 155 151 151 154 153 150 151 156 161 165 165 165 165 164 162 160 158 155 153 154 152 152 149 150 148 147 153 155 159 163 161 160 161 159 157 156
131 132 134 148 156 157 154 153 151 151 151 153 152 153 159 166 167 167 166 167 169 167 167 165 161 163 161 156 157 151 148 145 127 145 161 160 167 169 170 167 166 163 161
117 122 122 133 137 145 158 156 151 154 153 153 154 156 161 164 164 168 161 164 170 172 173 172 172 176 173 170 167 161 155 142 132 142 155 166 174 178 178 174 170 167 168
130 125 126 140 143 142 156 159 151 153 153 153 153 153 143 121 115 159 169 166 169 167 164 165 171 179 186 185 175 162 154 135 141 151 161 171 176 179 182 179 174 172 173
165 167 152 155 149 143 154 124 114 122 123 121 121 126 112 110 119 127 123 146 153 151 149 141 136 126 128 101 178 166 133 148 158 179 187 184 183 182 184 183 179 179 181
169 167 161 160 145 137 123 117 101 100 104 106 113 112 110 110 111 91 77 59 49 55 46 54 52 50 70 97 115 138 168 167 172 202 203 198 194 190 188 183 182 186 187
165 169 158 153 154 156 141 134 124 125 129 136 141 129 126 126 127 116 101 94 78 71 82 73 75 73 90 125 167 169 182 191 194 204 216 212 206 201 196 192 188 191 191
172 169 164 157 167 166 151 157 148 146 149 155 148 149 146 145 152 149 139 122 133 132 134 122 103 99 115 121 151 157 187 200 202 207 218 227 222 215 208 203 200 200 200
178 174 170 164 169 165 164 165 158 152 146 146 158 165 159 159 159 149 147 158 155 154 156 148 149 146 155 152 144 160 199 197 202 203 201 227 226 219 216 213 211 209 209
181 174 175 171 169 174 174 173 159 152 149 157 167 169 166 165 165 158 165 174 176 151 141 120 115 122 127 128 127 154 165 188 202 202 199 206 225 224 221 219 218 216 215
170 170 179 175 170 175 169 159 147 144 146 160 166 167 170 167 162 158 164 180 169 149 139 144 143 127 113 115 114 179 170 178 201 208 207 202 210 228 231 226 221 219 217
174 171 175 169 167 168 156 142 130 123 129 146 150 156 165 162 158 151 161 168 156 140 139 165 128 141 143 144 145 97 27 270 225 212 207 205 204 217 233 234 223 224 224
162 160 163 159 154 139 128 110 95 90 96 119 142 154 142 146 150 142 149 149 141 128 127 133 138 114 132 149 118 70 20 317 326 245 230 211 215 225 225 236 234 236 231
134 143 155 154 151 141 135 139 132 146 149 127 146 141 138 130 140 138 141 136 132 134 150 143 124 110 87 100 89 42 11 356 355 299 226 208 244 245 215 218 219 227 238
150 144 145 150 150 158 156 152 142 133 136 119 91 99 120 136 149 149 144 139 136 132 130 144 138 134 102 94 119 103 15 351 348 324 262 225 256 257 242 236 224 227 235
152 153 152 150 146 146 131 113 95 82 74 67 60 77 97 129 134 135 137 136 136 140 165 180 166 158 152 116 121 144 146 213 315 333 296 262 264 250 255 257 246 241 238
170 153 142 146 139 134 135 137 140 141 147 173 152 119 82 91 106 105 124 142 146 146 164 185 163 159 150 162 152 130 155 162 171 294 314 303 292 263 255 250 250 246 237
153 143 139 133 128 129 139 148 144 135 136 123 104 94 78 61 77 105 137 136 136 144 165 158 145 151 157 164 161 150 151 142 170 181 252 296 308 274 254 246 244 245 241
122 124 129 131 127 133 138 142 148 147 142 131 123 118 94 65 59 74 109 116 133 142 158 162 160 158 168 165 165 165 169 175 184 185 210 241 271 287 287 265 249 247 243